Location: Unspecified
(17.6330°N, 0.0000°E)
Time: 02:28:18
(UTC+00:00)

S-56A Canister/Altair - Pass Details

Date: 28 June 2019
Orbit: 632 x 2500 km, 38.9° (Epoch: 22 July)

Event Time Altitude Azimuth Distance (km) Brightness Sun altitude
Rises 16:25:49 0° 299° (WNW) 5,199 12.9 28.7°
Reaches altitude 10° 16:31:33 10° 319° (NW) 3,764 12.1 27.4°
Maximum altitude 16:36:38 15° 352° (N) 2,929 11.0 26.3°
Drops below altitude 10° 16:40:49 10° 27° (NNE) 2,976 10.5 25.3°
Sets 16:44:30 0° 51° (NE) 3,618 10.7 24.5°
